GORIZONT 12 (16769 NORAD) Tracking and Keplerian Element Data

This shows tracking and keplerian element data for the satellite.

Feedback or suggestion? Click here.




ElementValue
Catalog16769
NameGORIZONT 12
Epoch Orbit14226
Epoch Day34.75476519
Epoch Year2025
RAAN324.3604
Inclination10.8442
Eccentricity0.0004104
Argument of Perigee300.42
Mean Anonmoly196.8099
Mean Motion1.00210158
Decay Rate8.1E-07
L11 16769U 86044A 25034.75476519 .00000081 00000+0 00000+0 0 9996
L22 16769 10.8442 324.3604 0004104 300.4200 196.8099 1.00210158142265



Live tracking and technical data element details for GORIZONT 12 (NORAD 16769). GORIZONT 12 can be tracked NOW for your location showing map with azimuth and elevation plus other details from your city location.







IsCatalogInMostPopularTable: catalog: 16769, numindb: 325
Update: records affected: 1



GetName: 16769 GORIZONT 12

Hit Count: updated at: Thu, 15 May 2025 20:07:23 GMT